Back to catalog

STARLINK-37716

AliveCommunicationsSSO
NORAD 69213·PAYLOAD·🇺🇸 United States

Launched May 26, 2026 from Vandenberg Space Force Base

Loading…

Next Passes (next 24 hours)

TLE

FreshSource: CelesTrak SupGP

Epoch: Sep 14, 2026, 20:59 UTC

1 69213C 26115C   26257.87479167  .00043462  00000+0  13488-2 0  2578
2 69213  97.2830 273.9800 0001675  84.9783 278.1892 15.33425591    15

Track STARLINK-37716 in real time with AllMySat

Download on the App Store